Showing default

ARABSAT 5C, 37810

Orbit data source: Space-Track

ARABSAT 5C, 37810 is a payload satellite owned by Arabsat (SA) in GEO that was launched on Wed, 21 Sep 2011 UTC via an ARIANE 5ECA launch vehicle from the French Guiana (FRGUI). Payload-class satellites include a variety of spacecraft equipped with specific instruments for various scientific and technological missions. These include communications satellites like Starlink; space stations such as the ISS; scientific satellites like the Hubble; Earth observation satellites from companies like Planet Labs, Umbra, and HawkEye 360; GPS; miniature CubeSats for education and research; and military/defense satellites.

Not visible in the next 10 days
Identifier
37810, 2011-049B
Orbit
GEO
Country
Flag of ABAB
Related business
Manufacturer
Astrium/Toulouse
Mission
Operational Commercial Communications
Bus & Motor
EUROSTAR 3000, R-4D-15
Mass
4,619 kg wet, ~2,000 kg dry
Launch date (UTC)
2011-09-21 (15 years ago)
Launch vehicle
ARIANE 5ECA
Launch site
French Guiana (FRGUI)
Object type
Payload
Rocket body
Debris
Shape & HBR
Box + 2 Pan + 1 Dish, 15.4 m
Radar Cross Section
26.994 m², Large (>1 m²)

Expand to show TLE details & history
Last TLE update: 9 hours ago

TLE from 9 hours ago
0 ARABSAT 5C
1 37810U 11049B   26095.33100539  .00000000  00000-0  00000+0 0  9999
2 37810   0.0401  27.0366 0002820   4.4472 301.2572  1.00273418 53300
Epoch: 2026-04-05T07:56Z
TLE epoch observation values (Epoch: 2026-04-05T07:56:38.865Z)
Latitude
0.01667°
Longitude
19.91951°
Altitude
35,779.406 km
Speed
3.075 km/s
True Right ascension
22h 10m 52s
True Declination
0° 00' 60"
Sunlit
Object was in daylight at epoch
Visualization orbit readout
Latitude
Unknown
Longitude
Unknown
Altitude
Unknown
Speed
Unknown
Apparent Right ascension
Unknown
Apparent Declination
Unknown
Sunlit
N/A
Visualization observer readout
Local Sidereal Time
23:15:51
Azimuth
Unknown
Elevation
Unknown
Doppler factor
Unknown
Orbital elements
Apogee altitude
35,799.098 km
Perigee altitude
35,775.317 km
Semi-major axis
42,165.345 km
Eccentricity
0.00028
Inclination
0.0401°
RAAN
27.0366°
Arg. of periapsis
4.4472°
True anomaly
301.22957°
Mean anomaly
301.2572°
Eccentric anomaly
301.24339°
Mean motion
0.25067 °/min
Orbital period
1,436.13 mins
BSTAR
0
Loading maneuver chart data...
Computing Atmospheric mass density...
Loading historical data...
Loading historical data...
Loading historical data...
Loading historical data...
Loading historical data...
Loading historical data...
Loading historical data...
Other satellites on launch #49 in the year 2011 (2011-09-21 UTC)

Documentation

Showing up to 5 results
|